This demonstration page uses our WeatherBlox Daily Observations layout. Learn more.

Left ArrowRight Arrow

Hourly Observations for November 2, 2022

Temp ( °F °C ) Dew Point ( °F °C ) Humidity (%) Winds ( mph kmh ) Pressure ( in mb ) Visibility ( mi km ) Precip ( " mm )
12:55 am 00:55 Clear 62 16.7 39 3.7 42 42 S 8 13 30.07 1018 10 16 0.00 0.00
1:55 am 01:55 Clear 55 12.7 39 4.1 56 56 ESE 3 6 30.06 1018 10 16 0.00 0.00
2:55 am 02:55 Clear 54 12 39 4 58 58 SE 5 7 30.07 1018 10 16 0.00 0.00
3:55 am 03:55 Clear 54 12.2 40 4.2 58 58 ESE 3 6 30.06 1018 10 16 0.00 0.00
4:55 am 04:55 Clear 52 11.3 40 4.3 62 62 ESE 3 6 30.05 1018 10 16 0.00 0.00
5:55 am 05:55 Clear 52 11.3 40 4.7 64 64 ESE 6 9 30.05 1018 10 16 0.00 0.00
6:55 am 06:55 Clear 53 11.5 42 5.4 66 66 E 5 7 30.06 1018 10 16 0.00 0.00
7:55 am 07:55 Clear 51 10.5 42 5.7 72 72 ESE 8 13 30.06 1018 10 16 0.00 0.00
8:55 am 08:55 Sunny 55 13 45 7.2 68 68 SE 12 19 30.06 1018 10 16 0.00 0.00
9:55 am 09:55 Sunny 62 16.4 46 7.9 57 57 SSE 16 26 30.06 1018 10 16 0.00 0.00
10:55 am 10:55 Sunny 66 19 47 8.6 51 51 SSE 16 26 30.04 1017 10 16 0.00 0.00
11:55 am 11:55 Sunny 69 20.6 49 9.2 48 48 S 18 30 30.02 1017 10 16 0.00 0.00
12:55 pm 12:55 Sunny 74 23.5 49 9.5 41 41 S 23 37 29.98 1015 10 16 0.00 0.00
1:55 pm 13:55 Sunny 76 24.5 49 9.6 39 39 S 25 41 29.95 1014 10 16 0.00 0.00
2:55 pm 14:55 Mostly Sunny 76 24.5 50 10 40 40 S 23 37 29.93 1014 10 16 0.00 0.00
3:55 pm 15:55 Sunny 76 24.7 48 9 37 37 S 23 37 29.92 1013 10 16 0.00 0.00
4:55 pm 16:55 Sunny 75 23.8 47 8.6 38 38 S 22 35 29.92 1013 10 16 0.00 0.00
5:55 pm 17:55 Sunny 73 22.5 48 8.9 42 42 SSE 17 28 29.91 1013 10 16 0.00 0.00
6:55 pm 18:55 Clear 69 20.7 48 9 47 47 SSE 18 30 29.92 1013 10 16 0.00 0.00
7:55 pm 19:55 Clear 69 20.3 47 8.6 47 47 S 14 22 29.94 1014 10 16 0.00 0.00
8:55 pm 20:55 Clear 67 19.2 47 8.5 50 50 SSE 17 28 29.94 1014 10 16 0.00 0.00
9:55 pm 21:55 Clear 65 18.3 47 8.3 52 52 SSE 15 24 29.93 1014 10 16 0.00 0.00
10:55 pm 22:55 Clear 64 17.6 47 8.2 54 54 SSE 15 24 29.93 1014 10 16 0.00 0.00
11:55 pm 23:55 Clear 63 17 49 9.2 60 60 S 14 22 29.93 1014 10 16 0.00 0.00

Powered by AerisWeather